CZ-6A DEB

Satellite information

Favourite Embed

Satellite Type and Status

DEBRISIN ORBIT

Key statistics

Satellite CZ-6A DEB at a glance.

Uptime

494

Days in orbit

Revolutions

≈ 14.1

Per day

Orbit

LEO

Low Earth Orbit

Inclination

88.7

Latest

Satellite identification and parameters

Extended collection of information and parameters for CZ-6A DEB.

Object identification

Identified? True

Debris? True

Object name: CZ-6A DEB

International designator: 2024-140JZ

Object number (NORAD): 60870

Object ID (CCSDS): 60870

Country: PEOPLES REPUBLIC OF CHINA (PRC)

Current information (Y/N): Y

RCS size: MEDIUM

Orbital parameters

Period: 101.875 minutes

Inclination: 88.7393 deg

SMA: 7225.57 km

Apoapsis: 909.003 km

Periapsis: 785.867 km

RAAN: 281.5689 deg

Eccentricy: 0.00852085

Argument of periapsis: 113.5258 deg

Mean anomaly: 247.491 deg

Mean motion: 14.1349605 rev/day

Mean motion (dot): 0.00001311 rev/day2

B* drag term: 0.00066545278 1/REarth

Two-line elements (TLE)

Creation date: Dec. 12, 2025, 10:14 a.m.

Reference frame: TEME

Reference center: EARTH

Epoch: Dec. 12, 2025, 6:40 a.m. UTC

TLE line 0: 0 CZ-6A DEB

TLE line 1: 1 60870U 24140JZ 25346.27821140 .00001311 00000-0 66545-3 0 9992

TLE line 2: 2 60870 88.7393 281.5689 0085209 113.5258 247.4910 14.13496050 68351

Live tracking on map

Real-time ground track for satellite CZ-6A DEB.

In-orbit conjunctions

A list of the most updated potential collisions computed for object CZ-6A DEB.

Target Orbit TCA Probability of collision Miss distance Type
FENGYUN 1C DEB SSO 2025-08-22 20:44:18 0.0001025783 317.0 (m) DEBRIS
FENGYUN 1C DEB SSO 2025-04-27 09:10:05 0.0001126979 207.0 (m) DEBRIS
IRIDIUM 33 DEB LEO 2025-04-17 21:59:14 0.001476617 45.0 (m) DEBRIS
THOR ABLESTAR DEB LEO 2025-01-22 04:33:29 0.0001443022 961.0 (m) DEBRIS
COSMOS 1275 DEB LEO 2024-11-16 10:27:40 0.0001382344 669.0 (m) DEBRIS

Associated space launch

18 Low Earth Orbit communication satellites with Ku, Q and V band payloads for the G60 constellation operated by Shanghai Spacecom Satellite Technology (SSST) with funding backed by the Shanghai local government. Initial constellation will consist of 1296 satellites by 2027 with long term plans to expand it to 12000 satellites.

CZ-6A DEB was lifted into orbit during the mission ‘Long March 6A | G60 Polar Group 01’, on board a Long March 6A space rocket.

The launch took place on Aug. 6, 2024, 6:42 a.m. from Launch Complex 9A.

For more information about the launch, click the button.

Launch to space Long March 6A | G60 Polar Group 01
Long March 6A | G60 Polar Group 01

Agency: N/A

Status: Launch Successful

Launch date: Aug. 6, 2024, 6:42 a.m. UTC

Rocket: Long March 6A

Launch pad: Launch Complex 9A

Location: Taiyuan Satellite Launch Center, People's Republic of China

...

Latest news about this satellite

News about space launch
Brightness of first Chinese broadband constellation satellites alarms astronomers

The first satellites of a Chinese broadband constellation are significantly brighter than those of Western systems, posing a new challenge for astronomers.

News about space launch
Chinese rocket stage breaks up into cloud of more than 700 pieces of space debris

HELSINKI — A Chinese Long March 6A rocket’s upper stage has fragmented into a cloud of over 700 pieces of space debris, adding to concerns about long-term orbital safety. China […]

News about space launch
China's Thousand Sails Megaconstellation Kicks Off with Dangerous Debris Field

China's Thousand Sails Megaconstellation Kicks Off with Dangerous Debris Field


Newsletter sign-up

Weekly statistics, charts and insights to help you stay on top of the space industry.